Location: Ethel Rock
(53.4667°N, 4.5667°W)
Time: 23:09:57
(UTC+00:00)

SAR-Lupe-4 - Pass Details

Date: 24 October 2020
Orbit: 481 x 484 km, 98.2° (Epoch: 22 November)

Event Time Altitude Azimuth Distance (km) Brightness Sun altitude
Rises 04:39:51 0° 153° (SSE) 2,541 7.4 -21.8°
Reaches altitude 10° 04:41:56 10° 149° (SSE) 1,665 6.5 -21.5°
Maximum altitude 04:45:26 58° 71° (ENE) 575 4.1 -21.0°
Drops below altitude 10° 04:48:59 10° 352° (N) 1,677 6.3 -20.4°
Sets 04:51:04 0° 348° (NNW) 2,562 7.2 -20.1°
